Location: PSU-Greenbush Astrophysical Observatory
(37.5140°N, 94.9880°W)
Time: 19:23:05
(UTC-05:00)

BEESAT - Pass Details

Date: 21 February 2020
Orbit: 700 x 709 km, 98.6° (Epoch: 31 March)

Event Time Altitude Azimuth Distance (km) Brightness Sun altitude
Rises 19:11:25 0° 357° (N) 3,094 ? -13.8°
Reaches altitude 10° 19:14:10 10° 341° (NNW) 2,170 ? -14.4°
Maximum altitude 19:17:37 20° 294° (WNW) 1,576 ? -15.0°
Drops below altitude 10° 19:21:03 10° 247° (WSW) 2,160 ? -15.7°
Sets 19:23:47 0° 231° (SW) 3,073 ? -16.3°
